Home > Weather > Düren > Past weeks

Flag for Germany Past Weather in Düren, North Rhine-Westphalia, Germany — Yesterday and Last 2 Weeks

Now
59 °F

Partly sunny.


Feels Like: 58 °F
Forecast: 53 / 69 °F
Wind: 7 mph from East

Location: Noervenich

Current Time: May 31, 2016 at 8:08:47 AM

Latest Report: May 31, 2016 at 7:20 AM


Visibility: N/A

Pressure: 29.71 "Hg

Humidity: 82%

Dew Point: 54 °F

Location of DürenLocation

Past Weather in Düren — Graph

°F

Düren Temperature Yesterday

Maximum temperature yesterday: 68 °F (at 5:00 PM)
Minimum temperature yesterday: 59 °F (at 3:20 AM)
Average temperature yesterday: 62 °F

High & Low Weather Summary for the Past Weeks

 TemperatureHumidityPressure
High75 °F (May 21, 5:20 PM)100% (May 26, 5:20 AM)30.15 "Hg (May 26, 5:20 AM)
Low45 °F (May 16, 6:20 AM)34% (May 17, 1:20 PM)29.56 "Hg (May 30, 5:46 PM)
Average59 °F75%29.91 "Hg
* Reported May 16 6:20 AM — May 31 6:20 AM, Düren, Weather by CustomWeather, © 2016

Note: Actual official high and low records may vary slightly from our data, if they occured in-between our weather recording intervals... More about our weather records

Advertising

Düren Weather History for the Previous 24 Hours

Scroll right to see more
 ConditionsComfort  
Time TempWeatherWind HumidityBarometerVisibility
6:20 AM
Tue, May 31
59 °FPassing clouds.6 mph82%29.68 "HgN/A
5:20 AM59 °FCool.8 mph82%29.68 "HgN/A
4:20 AM59 °FCool.7 mph82%29.65 "HgN/A
3:20 AM59 °FCool.5 mph82%29.65 "HgN/A
2:20 AM59 °FCool.6 mph88%29.65 "HgN/A
1:20 AM59 °FCool.6 mph88%29.65 "HgN/A
12:20 AM59 °FCool.3 mph94%29.62 "HgN/A
11:20 PM
Mon, May 30
61 °FCool.5 mph88%29.62 "HgN/A
10:20 PM63 °FMild.6 mph88%29.59 "Hg5 mi
9:20 PM64 °FMild.2 mph88%29.59 "Hg6 mi
8:20 PM64 °FMild.1 mph94%29.59 "Hg3 mi
7:20 PM66 °FSprinkles. Broken clouds.2 mph88%29.59 "Hg4 mi
6:20 PM66 °FFog.5 mph94%29.59 "Hg3 mi
5:46 PM68 °FSprinkles. Fog.7 mph83%29.56 "Hg2 mi
5:20 PM68 °FFog.7 mph83%29.59 "Hg2 mi
5:00 PM68 °FFog.6 mph83%29.59 "Hg2 mi
4:20 PM66 °FFog.7 mph88%29.59 "Hg2 mi
3:20 PM64 °FFog.6 mph88%29.62 "Hg3 mi
2:47 PM63 °FFog.6 mph94%29.62 "Hg2 mi
2:20 PM63 °FFog.8 mph94%29.62 "Hg3 mi
1:20 PM61 °FPartly sunny.8 mph100%29.62 "Hg4 mi
12:20 PM61 °FLight rain. Partly sunny.8 mph94%29.62 "Hg5 mi
11:20 AM59 °FRain. Fog.8 mph100%29.62 "Hg3 mi
10:20 AM61 °FRain showers. Fog.6 mph94%29.62 "Hg2 mi
9:20 AM61 °FRain showers. Fog.8 mph94%29.62 "Hg1 mi
8:20 AM61 °FSprinkles. Fog.7 mph94%29.62 "Hg2 mi
Weather by CustomWeather, © 2016

See weather overviewHow to use our weather pages